Flag for Greece

Past Weather in Thessaloniki, Greece — Yesterday and Last 2 Weeks

Now
81 °F

Scattered clouds.


Feels Like: 81 °F
Forecast: 78 / 61 °F
Wind: 2 mph from North

Location: Thessaloniki Airport
Current Time: Sep 19, 2020 at 1:16:16 pm
Latest Report: Sep 19, 2020 at 12:20 pm
Visibility: N/A
Pressure30.12 "Hg
Humidity: 42%
Dew Point: 55 °F
Location of ThessalonikiLocation

Past Weather in Thessaloniki — Graph

°F

Thessaloniki Temperature Yesterday

Maximum temperature yesterday: 88 °F (at 2:20 pm)
Minimum temperature yesterday: 70 °F (at 3:50 am)
Average temperature yesterday: 78 °F

High & Low Weather Summary for the Past Weeks

 TemperatureHumidityPressure
High91 °F (Sep 8, 3:50 pm)83% (Sep 7, 3:50 am)30.21 "Hg (Sep 7, 3:50 am)
Low61 °F (Sep 6, 6:50 am)29% (Sep 13, 3:50 pm)29.86 "Hg (Sep 10, 5:50 pm)
Average77 °F57%30.03 "Hg
* Reported Sep 4 11:20 am — Sep 19 11:50 am, Thessaloniki. Weather by CustomWeather, © 2020

Note: Actual official high and low records may vary slightly from our data, if they occured in-between our weather recording intervals... More about our weather records

Thessaloniki Weather History for the Previous 24 Hours

Scroll right to see more
 ConditionsComfort  
Time TempWeatherWind HumidityBarometerVisibility
11:50 am
Sat, Sep 19
81 °FScattered clouds.3 mph39%30.12 "HgN/A
11:20 am79 °FPassing clouds.3 mph42%30.12 "HgN/A
10:50 am81 °FPassing clouds.6 mph39%30.12 "HgN/A
10:20 am79 °FPassing clouds.3 mph42%30.12 "HgN/A
9:50 am77 °FPassing clouds.7 mph44%30.12 "HgN/A
9:20 am75 °FPassing clouds.6 mph47%30.09 "HgN/A
8:50 am75 °FPassing clouds.5 mph47%30.09 "HgN/A
8:20 am73 °FPassing clouds.3 mph50%30.09 "HgN/A
7:50 am73 °FPassing clouds.3 mph50%30.07 "HgN/A
7:20 am75 °FPassing clouds.7 mph47%30.07 "HgN/A
6:50 am75 °FPassing clouds.7 mph47%30.07 "HgN/A
6:20 am75 °FPassing clouds.5 mph47%30.04 "HgN/A
5:50 am75 °FPassing clouds.7 mph50%30.04 "HgN/A
5:20 am77 °FPassing clouds.3 mph47%30.04 "HgN/A
4:50 am77 °FPassing clouds.6 mph51%30.04 "HgN/A
4:20 am77 °FPassing clouds.9 mph51%30.01 "HgN/A
3:50 am77 °FPassing clouds.9 mph51%30.01 "HgN/A
3:20 am77 °FPassing clouds.7 mph51%30.01 "HgN/A
2:50 am77 °FPassing clouds.13 mph51%30.01 "HgN/A
1:50 am79 °FPassing clouds.9 mph48%30.01 "HgN/A
1:20 am77 °FPassing clouds.9 mph54%30.01 "HgN/A
12:50 am77 °FPassing clouds.8 mph54%30.01 "HgN/A
12:20 am77 °FLight rain. Passing clouds.7 mph54%30.01 "HgN/A
11:50 pm
Fri, Sep 18
79 °FLight rain. Passing clouds.8 mph51%30.01 "HgN/A
11:20 pm77 °FLight rain. Passing clouds.9 mph54%30.01 "HgN/A
10:50 pm81 °FLight rain. Passing clouds.14 mph48%29.98 "HgN/A
10:20 pm81 °FPassing clouds.15 mph48%29.98 "HgN/A
9:50 pm81 °FPassing clouds.13 mph48%29.98 "HgN/A
9:20 pm81 °FPassing clouds.7 mph48%29.95 "HgN/A
8:50 pm81 °FPassing clouds.7 mph48%29.95 "HgN/A
8:20 pm81 °FPassing clouds.9 mph48%29.95 "HgN/A
7:50 pm81 °FPassing clouds.7 mph48%29.92 "HgN/A
7:20 pm81 °FPassing clouds.9 mph48%29.92 "HgN/A
6:50 pm82 °FPassing clouds.17 mph45%29.89 "HgN/A
6:20 pm82 °FPassing clouds.13 mph45%29.92 "HgN/A
5:50 pm82 °FPassing clouds.12 mph45%29.92 "HgN/A
5:20 pm82 °FPassing clouds.14 mph45%29.92 "HgN/A
4:50 pm82 °FPassing clouds.15 mph45%29.92 "HgN/A
4:20 pm84 °FPassing clouds.14 mph40%29.92 "HgN/A
3:50 pm84 °FPassing clouds.17 mph40%29.89 "HgN/A
3:20 pm84 °FPassing clouds.17 mph37%29.89 "HgN/A
2:50 pm84 °FPassing clouds.17 mph37%29.92 "HgN/A
2:20 pm88 °FPassing clouds.16 mph38%29.92 "HgN/A
1:50 pm86 °FPassing clouds.16 mph40%29.92 "HgN/A
1:20 pm86 °FPassing clouds.14 mph43%29.92 "HgN/A
Weather by CustomWeather, © 2020

See weather overview